Location: Unspecified
(0.0000°N, 0.0000°E)
Time: 17:51:31
(UTC+00:00)

Vanguard 3 - Visible Passes

Search period start: 18 January 2020 00:00
Search period end: 28 January 2020 00:00
Orbit: 508 x 3263 km, 33.3° (Epoch: 17 January)

Date Brightness Start Highest point End Pass type
(mag) Time Alt. Az. Time Alt. Az. Time Alt. Az.
18 Jan 6.5 04:28:09 58° SSE 04:28:09 58° SSE 04:31:23 10° SE visible
18 Jan 10.7 20:14:04 10° WNW 20:24:19 17° NNW 20:31:25 12° N visible
19 Jan 8.4 05:23:26 10° WSW 05:25:32 14° SSW 05:27:47 10° S visible
19 Jan 10.8 18:51:12 10° W 19:06:43 28° NNW 19:19:32 10° NNE visible
20 Jan 8.0 04:13:29 26° SSE 04:13:29 26° SSE 04:15:24 10° SE visible
20 Jan 10.8 19:58:10 10° WNW 20:08:10 16° NNW 20:16:25 10° N visible
21 Jan 10.9 18:35:09 10° WNW 18:50:05 26° NNW 19:02:57 10° NNE visible
21 Jan 10.9 21:08:26 10° NNW 21:10:23 10° NNW 21:11:10 10° N visible
22 Jan 9.0 03:58:45 13° SSE 03:58:45 13° SSE 03:59:20 10° SSE visible
22 Jan 10.8 19:42:17 10° NW 19:52:07 16° NNW 20:00:27 10° NNE visible
23 Jan 10.9 18:19:18 10° WNW 18:33:34 24° NNW 18:46:21 10° NNE visible
23 Jan 10.9 20:50:20 10° NNW 20:54:44 11° N 20:56:06 11° N visible
24 Jan 10.9 19:26:20 10° NW 19:36:08 16° NNW 19:44:35 10° NNE visible
25 Jan 10.8 20:32:38 10° NNW 20:39:04 13° N 20:41:01 13° N visible
26 Jan 10.9 19:10:15 10° NW 19:20:12 16° N 19:28:54 10° NNE visible
26 Jan 11.0 21:33:52 10° NNW 21:35:46 12° NNW 21:35:46 12° NNW visible
27 Jan 10.7 20:14:59 10° NNW 20:23:21 15° N 20:25:58 14° NNE visible
